x

Yucatan Basin - 120 Nm Ese Of Cozumel, Mx (42056) Wave Buoy

6:50 - Sun 26th Apr 2015 All times are CDT. -5 hours from GMT.

  • Sig Wave height 3.3ft
  • Swell Direction
  • Peak Period 5s
  • Average Period 4s
  • Wind
    18mph, 22mph gusts
  • Sea Temp 83°f
  • Ar Temp 82°f
  • Sea Pressure 1008.2mb
  •  Yucatan Basin - 120 Nm Ese Of Cozumel, Mx
  •  Yucatan Basin - 120 Nm Ese Of Cozumel, Mx

More Historic Weather Station data

Upgrade to MSW Pro to gain access to the past 30 days of data for over 8000 Wavebouys and Weather Stations around the globe.

Join Pro

Comparision Forecast

View Surf forecast
   
Dom 04/26 6:50 3.5ft 5s 4s 18 22 mph 1008.2mb 83f 82f
5:50 3.5ft 5s 4s 18 22 mph 1008mb 83f 82f
4:50 3.5ft 5s 4s 18 20 mph 1008.1mb 83f 82f
3:50 3.5ft 5s 4s 16 18 mph 1008.6mb 83f 82f
2:50 3ft 5s 4s 16 18 mph 1009.4mb 83f 82f
1:50 2.5ft 4s 4s 18 20 mph 1010mb 83f 82f
12:50 2.5ft 4s 4s 18 20 mph 1010.5mb 83f 82f
11:50 2.5ft 4s 4s 16 20 mph 1011mb 83f 82f
10:50 2ft 4s 4s 16 20 mph 1011.6mb 82f 82f
9:50 2ft 4s 4s 16 18 mph 1012mb 82f 82f
8:50 2ft 7s 4s 16 18 mph 1011.6mb 82f 82f
7:50 2ft 7s 4s 13 16 mph 1011.2mb 82f 82f
6:50 2ft 7s 4s 13 16 mph 1010.6mb 82f 82f
5:50 1.6ft 7s 4s 13 16 mph 1010.3mb 82f 81f
4:50 1.6ft 7s 4s 11 13 mph 1010.1mb 82f 81f
3:50 1.6ft 7s 4s 11 13 mph 1010.3mb 82f 81f
2:50 1.6ft 4s 4s 11 13 mph 1010.9mb 82f 81f
1:50 1.6ft 7s 4s 9 11 mph 1011.6mb 82f 82f
12:50 1.6ft 8s 4s 9
mph
1012.4mb 82f 82f
Sáb 04/25 11:50 1.6ft 4s 4s 9 11 mph 1012.6mb 83f 82f
10:50 1.6ft 7s 4s 9 11 mph 1013.1mb 83f 82f
9:50 1.6ft 8s 4s 11 13 mph 1012.8mb 83f 82f
8:50 2ft 7s 4s 9 11 mph 1012.7mb 83f 82f
7:50 1.6ft 8s 4s 11
mph
1011.8mb 83f 82f
6:50 1.6ft 3s 4s 9 11 mph 1011.5mb 83f 82f
5:50 1.6ft 8s 4s 11 13 mph 1010.8mb 83f 82f
4:50 2ft 8s 4s 13 16 mph 1010.4mb 83f 82f
3:50 1.6ft 8s 4s 11 13 mph 1010.8mb 83f 82f
2:50 1.6ft 7s 4s 11 13 mph 1011.6mb 83f 82f
1:50 1.6ft 7s 4s 11 13 mph 1012.2mb 83f 82f
12:50 1.6ft 8s 4s 11 13 mph 1012.7mb 83f 82f
11:50 1.6ft 8s 4s 11 13 mph 1013.3mb 83f 82f
10:50 1.6ft 8s 5s 9 11 mph 1013.8mb 83f 82f
9:50 1.6ft 8s 5s 7 9 mph 1014.2mb 82f 82f
8:50 1.6ft 7s 4s 7 9 mph 1013.8mb 82f 82f
7:50 1.6ft 8s 5s 7 9 mph 1013.6mb 82f 82f
6:50 1.6ft 7s 4s 7 9 mph 1012.9mb 82f 81f
5:50 1.6ft 8s 4s 9 11 mph 1012.1mb 82f 81f
4:50 1.6ft 8s 4s 9 11 mph 1012.1mb 82f 81f
3:50 1.6ft 8s 4s 9
mph
1012.1mb 82f 81f
2:50 2ft 8s 4s 9 11 mph 1012.3mb 82f 81f
1:50 2ft 8s 4s 11
mph
1012.8mb 82f 81f
12:50 2ft 8s 4s 11 13 mph 1013.6mb 82f 82f
Sex 04/24 11:50 1.6ft 8s 4s 13
mph
1014.1mb 83f 82f
10:50 2ft 8s 5s 11 13 mph 1014.5mb 83f 82f
9:50 1.6ft 8s 4s 11 13 mph 1014.5mb 83f 82f
8:50 2ft 8s 4s 9 11 mph 1014.1mb 83f 82f
7:50 2ft 8s 5s 11 13 mph 1013.4mb 83f 82f
6:50 2ft 8s 5s 9 11 mph 1013.2mb 83f 82f
5:50 2ft 8s 5s 11
mph
1012.9mb 83f 82f
4:50 2ft 7s 5s 9 11 mph 1012.6mb 83f 82f
3:50 2ft 8s 4s 11 13 mph 1012.7mb 83f 82f
2:50 2ft 8s 4s 11 13 mph 1013.2mb 83f 82f
1:50 2ft 8s 4s 9 11 mph 1013.8mb 83f 82f
12:50 2ft 8s 4s 11 13 mph 1014.3mb 83f 82f
11:50 2ft 8s 5s 11 13 mph 1015mb 83f 82f
10:50 2ft 8s 5s 11 13 mph 1015.4mb 82f 82f
9:50 2.5ft 8s 5s 11 13 mph 1015.3mb 82f 82f
8:50 2ft 8s 5s 9
mph
1014.8mb 82f 82f
7:50 2.5ft 8s 5s 9 11 mph 1014.3mb 82f 81f
6:50 2.5ft 8s 5s 9 11 mph 1013.7mb 82f 81f
5:50 2.5ft 8s 5s 9 11 mph 1013.4mb 82f 81f
4:50 2.5ft 8s 5s 9 11 mph 1012.9mb 82f 81f
3:50 2.5ft 8s 5s 11
mph
1012.7mb 82f 81f
2:50 2.5ft 8s 5s 7 9 mph 1012.8mb 82f 81f
1:50 2.5ft 8s 5s 9 11 mph 1013.4mb 82f 81f
12:50 2.5ft 8s 5s 11 13 mph 1013.9mb 82f 81f
Qui 04/23 11:50 2.5ft 8s 5s 7 9 mph 1014.4mb 82f 81f
10:50 2.5ft 6s 5s 9
mph
1014.5mb 82f 81f
9:50 2.5ft 8s 5s 9 11 mph 1014.4mb 82f 82f
8:50 2.5ft 8s 5s 9
mph
1013.7mb 82f 82f
7:50 2.5ft 8s 5s 7 9 mph 1013.1mb 82f 82f
6:50 2.5ft 8s 5s 9 11 mph 1012.7mb 82f 82f
5:50 2.5ft 8s 5s 9 11 mph 1012.5mb 82f 82f
4:50 3ft 5s 4s 11 13 mph 1012.4mb 82f 82f
3:50 3ft 8s 5s 11 13 mph 1012.4mb 83f 82f
2:50 2.5ft 8s 4s 11 13 mph 1012.9mb 82f 82f
1:50 3ft 8s 4s 13 16 mph 1013.2mb 82f 82f
12:50 3ft 7s 4s 13 16 mph 1013.9mb 82f 82f
11:50 3ft 8s 5s 13 16 mph 1014.4mb 82f 82f
10:50 3ft 7s 5s 16 18 mph 1014.7mb 82f 81f
9:50 3ft 5s 5s 16 18 mph 1014.7mb 82f 82f
8:50 3.5ft 6s 4s 13 18 mph 1014.6mb 82f 81f
7:50 3ft 7s 4s 16 18 mph 1014.1mb 82f 81f
6:50 3.5ft 6s 5s 13 18 mph 1013.8mb 82f 81f
5:50 3.5ft 6s 5s 13 18 mph 1013.3mb 82f 81f
4:50 3ft 6s 5s 13 16 mph 1013mb 82f 81f
3:50 3ft 5s 5s 11 13 mph 1012.7mb 82f 81f
2:50 3.5ft 5s 5s 13 16 mph 1012.5mb 82f 81f
1:50 3.5ft 6s 5s 16 18 mph 1012.6mb 82f 81f
12:50 3.5ft 6s 5s 13 16 mph 1013.6mb 82f 82f